Torna al catalogo

STARLINK-36984

AttivoComunicazioniVLEO
NORAD 68168·PAYLOAD·🇺🇸 United States

Lanciato Mar 14, 2026 da Vandenberg Space Force Base

Loading…

Prossimi Passaggi (prossime 24 ore)

TLE

AggiornatoSource: CelesTrak SupGP

Epoca: Sep 14, 2026, 21:25 UTC

1 68168C 26050B   26257.89284722 -.00162410  00000+0 -47995-2 0  2574
2 68168  53.1576 103.7928 0001280  84.6945 124.0670 15.34465007    11

Traccia STARLINK-36984 in tempo reale con AllMySat

Download on the App Store